Temperature
15 15 15 16 19 20 21 21 20 20 19 18 18 19 21 21 21 20 15 15 15 15 15 15 15 15 15 15 15 15 15 15 15 15 15 15 15 15 15 15 15 15 15 15 15 15 15 15 15
14 15 15 17 19 20 21 21 19 20 19 17 17 17 19 19 16 15 15 15 15 15 15 15 15 15 15 15 15 15 15 15 15 15 15 15 15 15 15 15 14 15 15 15 15 15 15 15 15
14 15 16 18 19 21 21 20 20 18 16 16 17 17 18 17 15 14 14 15 15 14 14 14 15 15 15 15 15 15 15 15 15 15 15 15 15 15 14 14 14 14 14 14 14 14 14 15 15
14 14 16 18 19 19 20 19 18 18 16 16 17 17 15 14 14 14 15 15 14 14 14 14 14 14 14 14 14 15 15 15 15 15 15 14 14 14 14 14 14 14 14 14 14 14 14 14 15
14 16 17 17 18 19 18 18 17 18 18 17 17 17 16 14 14 14 14 14 14 14 14 14 14 14 14 14 14 14 14 14 14 14 14 14 14 14 14 14 14 14 14 14 14 14 14 14 14
14 16 17 18 19 18 18 16 16 18 17 16 16 17 16 14 14 14 14 14 14 14 14 14 14 14 14 14 14 14 14 14 14 14 14 14 14 14 14 14 14 14 14 14 14 14 14 14 14
15 16 17 18 18 18 17 15 16 18 17 16 16 17 15 13 14 14 14 13 13 13 13 13 13 13 13 13 14 14 14 14 14 14 14 14 13 14 14 14 14 14 14 14 14 14 14 14 14
14 16 16 17 17 17 16 15 15 16 17 15 15 17 16 13 13 13 13 13 13 13 13 13 13 13 13 13 13 13 13 13 13 13 13 13 13 13 13 13 13 14 14 14 13 13 13 14 14
12 15 16 17 17 17 15 15 14 13 14 13 13 14 14 13 13 13 13 12 12 12 13 13 13 13 13 13 13 13 13 13 13 13 13 13 13 13 13 13 13 13 13 13 13 13 13 13 13
13 15 16 16 16 16 15 15 14 14 14 14 13 13 13 13 13 12 12 12 12 12 12 12 12 12 12 12 12 12 12 12 12 12 12 12 12 12 12 13 13 13 13 13 13 13 13 13 13
13 14 14 14 13 13 14 14 13 14 15 15 14 13 13 12 12 12 12 12 12 12 12 12 12 12 12 12 12 12 12 12 12 12 12 12 12 12 12 12 12 12 12 12 12 12 12 12 12
13 13 13 13 12 12 13 13 13 13 14 14 13 13 12 12 12 12 12 11 11 11 12 12 12 12 12 12 12 12 11 12 12 12 12 12 12 12 12 11 12 12 12 12 12 12 12 12 12
12 12 11 11 11 11 12 12 12 12 12 12 12 12 12 12 12 11 11 11 11 11 12 12 12 11 11 11 11 11 11 11 11 11 11 11 11 11 11 11 11 11 11 11 11 11 11 11 11
12 11 11 11 11 11 11 12 12 12 12 11 11 11 11 11 11 11 11 11 11 11 11 11 11 11 11 11 11 11 11 11 11 11 11 11 11 11 11 11 11 11 11 11 11 11 11 11 11
10 11 12 12 11 11 11 12 12 12 11 11 11 11 11 11 11 11 11 11 11 11 11 11 11 11 11 11 10 10 10 11 11 11 11 11 10 10 10 10 11 10 10 10 11 10 10 10 10
11 11 12 12 11 11 11 13 14 12 11 11 11 11 11 11 11 11 11 11 11 11 11 11 11 10 10 10 10 10 10 10 10 10 10 10 10 10 10 10 10 10 10 10 10 10 10 10 10
11 11 12 12 11 11 11 12 13 11 11 12 11 11 11 10 10 10 10 10 10 10 10 10 10 10 10 10 10 10 10 10 10 10 10 10 10 10 10 10 10 10 9 9 9 9 9 9 9
11 11 12 12 11 11 11 12 12 11 11 11 11 11 10 10 10 10 10 10 10 10 10 10 10 10 9 9 9 9 9 9 9 9 9 9 9 9 9 9 9 9 9 9 9 9 9 9 9
11 11 11 12 11 10 11 11 12 12 11 11 11 11 10 10 9 9 9 10 10 10 10 9 9 9 9 9 9 9 9 9 9 9 9 9 9 9 9 9 9 9 9 9 9 8 8 8 8
9 10 10 10 10 10 10 10 11 12 11 11 11 11 10 9 9 9 9 9 9 9 9 9 9 9 9 9 9 9 9 9 9 9 9 8 8 9 9 9 9 9 8 8 8 8 8 8 8
9 9 10 10 9 9 9 10 11 11 11 10 10 10 9 9 9 8 8 9 9 9 9 9 9 9 9 9 8 8 8 8 8 8 8 8 8 8 8 8 8 8 8 8 8 8 8 8 7
9 9 9 9 9 9 9 10 12 12 11 10 10 10 9 8 8 8 8 8 8 8 9 9 8 8 8 8 8 8 8 8 8 8 8 8 8 8 8 8 8 8 8 7 7 7 7 7 7
8 8 8 8 8 8 9 8 11 11 10 11 10 9 8 7 7 7 7 7 8 8 8 8 8 8 8 8 8 8 8 8 8 8 8 8 8 8 8 7 8 7 7 7 7 7 7 7 7
7 7 7 7 7 7 9 9 11 11 10 10 10 8 7 7 7 7 7 7 7 7 8 8 8 8 7 7 7 7 7 7 7 7 7 7 7 7 7 7 7 7 7 7 7 7 6 6 6
7 7 7 7 7 9 9 9 10 10 9 9 8 7 7 6 6 6 6 6 7 7 7 7 7 7 7 7 7 7 7 7 7 7 7 7 7 7 7 7 7 7 7 7 7 6 6 6 6
7 7 7 8 9 9 8 9 10 9 8 7 7 6 6 6 5 5 6 6 6 7 6 6 6 6 6 6 6 6 6 6 6 6 7 7 7 7 7 7 6 6 6 6 6 6 6 6 6
6 7 7 7 7 7 9 8 9 8 7 7 6 6 5 5 5 5 5 5 6 6 6 6 6 6 6 6 6 6 6 6 6 6 6 6 6 6 6 6 6 6 6 6 6 5 5 5 5
6 6 6 6 7 8 9 8 8 7 7 6 6 6 5 4 4 4 5 5 5 5 6 6 6 6 6 6 6 6 6 6 6 6 6 6 6 6 6 6 6 6 5 5 5 5 5 5 5
4 4 5 6 7 7 8 8 8 7 6 6 5 5 4 3 3 3 4 4 4 5 5 5 5 5 5 5 5 5 5 5 5 5 5 5 5 6 6 6 5 5 5 5 5 5 5 5 5
4 4 4 5 5 6 7 7 6 6 6 5 5 4 3 3 2 3 3 3 4 4 4 5 5 5 5 5 5 5 5 5 5 5 5 5 5 5 5 5 5 5 5 5 4 4 4 4 4
Wind_Speed
2 1 2 3 4 5 9 7 4 5 4 3 3 4 4 4 3 2 4 4 5 7 9 11 10 11 10 10 10 10 10 10 10 10 10 10 10 10 10 10 9 9 9 9 9 10 10 10 10
1 1 2 3 6 9 8 7 8 6 3 4 4 4 4 3 1 2 3 4 5 7 8 10 11 11 11 10 10 10 10 10 9 9 9 9 10 10 10 9 9 9 9 9 9 10 10 10 10
1 1 3 4 7 9 6 5 6 4 4 4 4 3 2 2 2 2 3 5 6 7 8 9 11 11 11 10 10 10 9 9 9 9 9 9 9 9 9 9 8 8 9 9 9 10 9 9 10
2 3 3 6 11 9 6 2 4 6 5 4 4 4 2 1 1 2 4 5 6 7 7 9 10 10 10 10 10 10 9 9 9 9 9 9 9 9 9 8 8 8 8 9 9 9 9 9 9
2 4 6 9 11 7 6 4 4 7 6 6 6 4 3 2 2 4 5 5 6 6 6 8 9 9 10 10 9 10 9 9 9 9 9 9 9 8 8 8 8 8 8 9 9 9 9 9 9
4 4 8 12 12 7 6 6 6 8 7 6 5 5 3 4 4 5 5 5 5 5 6 7 8 9 9 9 9 9 9 9 9 8 9 9 9 8 8 8 8 8 8 8 9 9 9 9 9
5 5 9 10 10 8 6 5 8 9 9 7 5 5 4 6 5 5 6 5 5 5 5 6 7 8 8 8 9 9 9 9 9 8 8 8 8 8 8 8 7 8 8 8 8 9 9 9 9
3 4 8 9 10 9 5 5 4 8 7 3 5 6 4 6 7 6 6 5 5 4 4 5 5 5 6 7 8 9 9 9 9 9 8 8 8 8 8 7 7 7 8 8 8 9 9 9 9
4 7 10 10 9 6 5 6 4 3 4 4 4 3 1 7 8 7 6 5 5 4 4 4 4 4 5 6 7 8 9 9 9 8 9 7 6 6 6 6 7 7 7 7 8 9 9 9 9
6 9 11 6 6 4 5 6 5 5 7 6 6 4 4 8 9 9 8 8 7 6 5 4 4 4 4 5 5 6 7 7 7 6 7 6 5 5 5 7 6 7 7 7 8 9 8 6 6
6 9 8 6 5 4 5 5 5 7 9 10 10 8 8 8 9 9 9 9 8 7 6 5 4 4 4 4 4 3 4 5 6 7 7 6 5 5 4 4 5 6 6 6 7 7 5 5 5
7 9 7 5 5 5 6 5 6 11 10 6 8 7 8 10 10 10 10 9 8 7 7 6 5 4 4 4 3 3 3 3 4 5 7 6 4 4 4 3 4 4 4 4 5 4 5 5 5
11 7 8 8 7 7 7 9 9 12 11 8 7 8 10 11 11 10 9 8 8 8 7 6 5 5 5 4 3 3 3 3 3 4 6 6 4 4 4 4 4 4 4 4 4 5 5 5 5
7 7 7 7 8 7 9 12 10 13 10 9 9 10 11 11 11 10 9 9 9 8 7 6 6 6 5 4 4 4 4 3 3 3 5 6 5 4 4 4 3 3 4 4 4 5 5 4 4
4 7 9 10 9 6 6 12 15 13 9 10 10 10 10 11 11 11 10 10 9 8 8 7 6 6 6 5 5 4 4 4 3 3 5 5 5 5 4 4 4 4 4 4 4 5 4 4 4
5 7 9 7 7 7 9 14 11 7 9 11 11 10 10 10 11 10 10 9 8 8 8 7 6 7 6 5 5 4 4 4 4 4 4 5 6 6 5 4 4 4 4 4 4 4 4 4 3
7 10 12 8 7 6 10 12 8 6 9 11 11 10 10 10 10 10 9 9 9 8 8 8 7 7 7 6 5 4 4 4 4 4 4 5 6 6 5 4 4 5 4 4 4 4 4 4 3
10 11 11 11 5 8 12 15 11 8 10 12 11 10 10 10 10 9 9 8 8 8 8 8 8 7 7 5 5 4 4 4 4 4 4 5 6 7 6 4 5 5 4 4 4 4 4 4 4
9 11 13 10 5 8 14 16 15 13 12 13 12 11 11 10 9 8 8 8 8 8 8 8 8 8 7 5 5 5 5 4 4 4 5 6 6 7 6 5 5 5 5 5 5 4 5 4 4
12 13 13 9 6 8 12 17 16 16 15 14 13 12 11 10 8 7 7 8 9 9 8 8 9 9 8 7 6 5 5 4 4 4 5 6 6 7 6 6 5 5 5 6 6 6 5 3 4
14 15 13 10 7 8 10 14 14 11 12 12 13 12 11 10 9 8 7 8 8 9 9 8 9 9 9 8 6 5 4 3 4 4 4 5 6 6 6 6 6 6 6 6 6 7 6 5 4
13 11 11 10 8 7 6 9 10 9 10 10 10 10 9 9 8 7 7 8 8 8 8 8 9 9 9 9 8 9 7 6 6 6 5 5 5 6 6 6 6 6 6 6 7 6 5 6 5
8 6 9 11 11 10 10 9 10 7 9 9 7 7 7 6 6 7 6 7 7 7 7 8 8 9 9 9 9 9 8 6 5 5 6 5 5 5 5 6 6 6 5 6 7 6 6 6 6
4 3 5 7 7 10 12 11 9 6 7 6 5 5 5 5 5 5 4 5 5 6 6 7 8 8 9 9 9 9 9 8 7 7 6 5 4 4 5 5 6 6 6 7 7 7 7 6 6
5 4 3 5 7 9 6 9 8 4 3 5 4 4 3 3 4 4 3 3 4 6 6 7 7 8 8 9 9 9 9 9 9 8 7 6 4 4 5 5 5 5 6 6 6 6 6 7 7
8 8 7 6 7 6 6 9 4 2 2 2 2 2 2 2 2 3 3 3 3 4 6 7 7 8 8 9 9 8 8 7 6 7 6 6 5 5 6 6 5 6 6 6 6 6 6 6 6
6 8 5 4 5 6 7 5 5 1 2 2 2 2 2 1 1 2 2 2 2 3 4 7 7 7 8 8 8 8 8 7 7 7 6 5 5 5 6 6 6 5 6 6 6 5 6 6 6
5 4 3 5 5 7 7 7 3 2 2 2 3 3 3 2 1 0 1 1 1 2 3 4 7 7 7 7 7 6 7 7 7 6 7 6 6 6 6 6 6 5 5 5 6 5 5 6 6
2 3 4 5 5 6 6 3 2 2 2 2 3 4 4 3 2 0 0 0 0 1 1 2 4 6 6 7 7 7 6 6 6 6 6 6 5 5 6 6 6 6 6 6 6 6 6 6 6
4 4 4 4 5 5 5 3 4 4 3 4 5 5 4 3 3 2 1 1 1 1 1 1 2 3 5 6 7 7 6 6 6 6 5 5 5 5 5 6 6 6 6 6 6 6 6 6 6
Wind_Direction
349 323 228 211 209 223 233 222 212 187 190 185 177 196 206 202 208 111 90 119 132 146 147 148 144 139 135 133 132 131 128 127 126 125 123 124 126 125 123 122 119 117 113 112 110 110 109 107 105
323 228 205 211 226 226 227 217 210 205 161 147 171 198 202 204 36 86 123 126 142 145 148 146 140 139 136 133 133 134 132 129 128 128 127 125 123 126 125 124 120 118 116 114 111 110 110 109 110
139 250 211 208 225 232 225 196 203 180 172 183 178 200 215 174 139 129 113 137 144 142 145 138 138 139 138 135 131 130 133 133 132 130 128 127 123 121 122 122 120 116 115 115 113 112 111 113 114
195 180 205 227 229 232 241 195 171 171 178 198 194 180 171 101 109 113 125 140 141 139 141 136 137 140 140 137 134 131 129 131 134 132 130 128 124 120 119 118 118 118 118 117 115 113 115 115 116
195 206 213 229 236 233 235 233 203 200 191 187 196 196 171 136 117 122 134 141 139 136 137 138 138 142 143 142 139 135 133 130 130 133 132 129 126 121 118 117 117 117 121 120 114 112 115 119 119
185 209 224 233 233 232 230 220 210 216 208 194 199 203 185 147 149 142 140 143 142 137 134 136 135 141 146 146 143 140 137 131 127 127 130 129 126 121 120 119 118 119 120 120 118 118 116 113 116
207 212 234 239 239 235 225 201 216 215 212 206 201 199 177 170 162 151 145 141 137 137 136 135 144 147 148 147 145 144 139 134 130 127 122 122 124 124 123 122 121 123 123 120 121 123 119 116 112
219 219 233 232 235 237 205 193 221 221 221 201 208 215 196 173 160 154 149 149 146 143 140 142 146 151 155 154 149 148 143 140 135 130 122 117 120 124 127 129 123 124 125 124 122 121 119 116 112
201 225 233 228 228 227 186 199 200 221 207 203 218 243 215 148 157 160 161 166 166 164 157 149 153 150 152 157 154 156 152 148 146 141 132 138 140 138 137 123 123 125 127 127 126 122 119 120 116
202 227 235 233 229 224 197 213 201 199 215 222 220 218 176 166 175 181 186 189 187 186 181 170 165 165 161 157 160 168 169 165 168 162 156 157 149 142 134 120 122 125 128 130 128 124 129 138 136
208 232 237 233 234 239 224 227 219 219 234 230 223 210 187 185 194 200 201 201 199 193 189 185 179 177 170 163 166 169 171 171 175 172 167 162 154 149 148 149 148 145 149 147 143 147 144 143 139
218 236 238 237 229 235 238 234 231 232 244 248 236 211 197 199 202 208 208 207 204 198 195 191 186 182 177 171 167 166 168 170 175 178 178 172 161 160 161 162 163 165 167 161 164 161 154 147 146
227 238 240 247 244 246 251 246 252 250 250 252 232 210 211 211 213 213 213 211 206 203 200 195 193 191 186 177 175 170 172 176 176 181 184 181 171 170 166 165 166 170 174 173 170 166 157 151 146
231 235 246 249 246 248 248 256 253 253 244 231 221 219 219 217 215 212 210 212 210 207 203 193 193 194 189 183 183 179 173 167 179 179 185 183 179 175 173 168 166 171 179 179 175 168 162 155 148
231 249 254 246 239 235 240 255 242 246 231 226 224 225 225 224 220 218 216 213 212 209 203 195 192 191 191 186 187 181 179 172 171 182 184 184 183 181 175 174 174 175 177 177 173 167 165 158 153
225 238 246 230 221 217 220 253 248 230 221 231 231 230 230 229 227 224 219 214 210 206 202 197 193 190 191 188 185 182 179 177 173 180 184 185 188 186 179 176 177 176 178 179 177 177 172 166 162
220 237 244 243 215 211 221 255 258 230 228 238 238 236 235 234 232 226 219 213 208 204 200 196 193 192 189 186 182 179 172 175 176 175 185 190 192 190 184 180 176 175 177 181 185 187 180 168 161
232 239 248 245 223 222 236 252 258 250 243 247 247 243 240 239 237 230 220 213 208 203 200 196 192 190 186 181 179 173 171 174 176 170 184 190 189 190 189 182 179 177 178 184 187 183 175 171 162
252 248 253 256 245 241 248 257 259 257 252 249 247 243 240 243 243 233 218 206 202 198 195 194 192 187 182 181 182 179 182 182 181 171 183 191 187 189 189 180 178 183 187 187 184 179 170 166 161
242 250 257 265 255 257 265 266 263 255 248 245 245 244 241 243 235 226 216 203 200 197 195 196 194 189 187 188 185 187 179 185 180 174 181 192 189 188 188 183 182 187 187 185 184 183 179 174 180
238 243 251 259 274 263 275 272 252 245 239 241 243 242 241 237 234 224 216 207 200 197 196 196 196 191 189 184 174 168 164 163 174 184 189 194 192 188 190 190 185 186 186 186 186 188 190 186 185
244 244 251 253 255 259 246 275 258 241 240 241 241 238 238 235 233 228 216 208 202 201 197 196 195 191 188 182 182 181 181 181 190 191 191 191 193 191 191 191 188 187 190 191 192 193 196 190 189
240 251 242 244 247 258 242 252 265 236 246 246 243 240 241 233 229 223 216 207 200 194 193 194 193 190 188 188 186 186 186 185 180 181 183 185 187 191 190 190 190 191 193 195 195 193 198 200 198
217 228 236 231 233 245 236 233 261 233 247 257 252 250 248 230 220 213 204 194 191 188 186 188 190 190 189 189 190 191 187 182 176 178 180 186 188 193 193 192 195 194 194 195 196 197 201 205 204
202 196 213 216 219 240 218 227 250 264 269 257 254 254 251 223 204 194 183 181 184 189 187 189 190 191 190 190 192 193 192 188 185 185 187 189 190 194 197 193 197 198 199 197 195 196 201 206 206
218 213 221 233 240 252 222 231 240 319 307 269 256 264 250 232 197 187 180 175 182 189 186 189 192 192 191 192 194 194 193 191 191 191 189 192 195 197 196 196 198 197 196 196 194 194 200 203 206
206 217 243 250 265 252 233 245 266 339 359 30 11 356 355 324 210 184 169 157 178 188 191 191 189 190 189 189 188 191 193 193 192 191 191 191 194 193 191 191 194 194 192 193 191 197 201 199 204
242 212 217 222 228 245 245 243 253 289 329 6 3 345 348 352 306 195 179 180 210 203 196 192 192 190 188 187 186 188 191 193 192 189 189 190 191 185 186 188 191 192 188 188 191 195 199 200 202
224 210 231 236 247 244 253 249 2 342 343 349 347 340 343 347 351 30 13 9 39 134 164 185 195 189 186 186 185 184 185 186 186 187 188 187 186 184 186 188 189 190 191 191 193 193 191 198 201
232 229 222 234 243 244 253 267 25 355 2 358 350 351 351 0 12 22 23 42 53 68 136 184 195 194 189 188 184 183 182 181 182 183 182 181 182 182 184 186 188 192 193 192 192 193 194 200 204
Height
1517 1518 1520 1522 1521 1516 1510 1507 1509 1511 1513 1515 1516 1516 1514 1514 1516 1521 1521 1519 1520 1522 1524 1526 1528 1529 1530 1532 1533 1534 1535 1536 1537 1538 1539 1540 1541 1541 1542 1542 1543 1544 1545 1545 1546 1546 1546 1547 1547
1517 1519 1521 1522 1516 1512 1508 1505 1509 1510 1513 1516 1517 1517 1516 1516 1518 1519 1518 1518 1520 1522 1524 1525 1527 1529 1530 1531 1533 1534 1535 1536 1537 1538 1539 1540 1540 1541 1542 1542 1543 1544 1544 1545 1546 1546 1547 1547 1548
1517 1518 1521 1517 1512 1506 1503 1505 1507 1512 1514 1515 1516 1516 1516 1517 1518 1518 1517 1518 1520 1522 1524 1525 1527 1528 1530 1531 1532 1533 1535 1536 1537 1537 1538 1539 1540 1541 1541 1542 1543 1544 1544 1545 1546 1546 1547 1548 1548
1518 1520 1520 1516 1509 1505 1505 1506 1509 1512 1514 1515 1515 1515 1516 1516 1516 1517 1517 1518 1520 1522 1523 1525 1526 1527 1529 1530 1531 1533 1534 1535 1536 1537 1538 1538 1539 1540 1541 1542 1542 1543 1544 1545 1545 1546 1547 1548 1548
1517 1518 1515 1511 1506 1505 1507 1509 1511 1510 1511 1513 1514 1513 1514 1515 1514 1515 1516 1518 1520 1521 1523 1524 1525 1527 1528 1529 1531 1532 1533 1534 1535 1536 1537 1538 1539 1539 1540 1541 1542 1543 1544 1544 1545 1546 1547 1548 1548
1517 1515 1511 1505 1502 1505 1507 1509 1510 1509 1510 1512 1513 1513 1513 1514 1514 1515 1516 1518 1519 1520 1522 1523 1524 1526 1527 1529 1530 1531 1532 1533 1534 1535 1536 1537 1538 1539 1540 1541 1541 1542 1543 1544 1545 1546 1547 1547 1548
1515 1512 1505 1502 1502 1503 1506 1508 1508 1507 1508 1510 1511 1511 1512 1512 1513 1514 1515 1517 1518 1520 1521 1522 1524 1525 1526 1527 1529 1530 1531 1532 1533 1534 1535 1536 1537 1538 1539 1540 1541 1542 1543 1544 1545 1546 1547 1547 1548
1512 1511 1506 1503 1502 1500 1504 1507 1507 1507 1507 1509 1510 1509 1510 1511 1511 1513 1514 1516 1517 1518 1520 1521 1522 1523 1525 1526 1527 1528 1530 1531 1532 1533 1534 1535 1536 1537 1538 1539 1540 1541 1542 1543 1544 1545 1546 1547 1548
1511 1510 1501 1499 1500 1499 1503 1505 1506 1506 1507 1507 1507 1508 1508 1509 1510 1511 1513 1514 1515 1517 1518 1519 1520 1522 1523 1524 1525 1527 1528 1529 1531 1532 1533 1534 1535 1536 1537 1538 1539 1540 1541 1542 1543 1544 1545 1546 1547
1509 1504 1497 1499 1500 1500 1503 1503 1504 1505 1504 1505 1506 1506 1506 1507 1508 1509 1510 1512 1513 1514 1516 1517 1518 1519 1521 1522 1523 1525 1526 1527 1529 1530 1531 1532 1533 1534 1536 1537 1538 1539 1540 1541 1542 1543 1544 1545 1546
1504 1500 1499 1501 1502 1502 1502 1502 1503 1502 1500 1501 1502 1503 1504 1505 1506 1507 1508 1509 1510 1512 1513 1514 1516 1517 1518 1520 1521 1522 1524 1525 1526 1528 1529 1530 1531 1533 1534 1535 1536 1538 1539 1540 1541 1542 1543 1544 1545
1502 1500 1500 1500 1501 1501 1501 1501 1501 1499 1497 1499 1500 1501 1501 1502 1503 1504 1505 1507 1508 1509 1510 1512 1513 1514 1516 1517 1518 1520 1521 1522 1524 1525 1526 1528 1529 1530 1532 1533 1534 1535 1537 1538 1539 1540 1541 1543 1544
1499 1498 1499 1499 1500 1500 1500 1499 1498 1496 1496 1496 1497 1497 1498 1499 1500 1501 1503 1504 1505 1506 1507 1508 1510 1511 1513 1514 1515 1517 1518 1519 1521 1522 1524 1525 1527 1528 1529 1531 1532 1533 1535 1536 1537 1539 1540 1541 1542
1497 1497 1497 1497 1497 1497 1497 1496 1496 1490 1493 1493 1493 1493 1494 1495 1496 1498 1499 1499 1501 1502 1503 1505 1507 1508 1510 1511 1513 1514 1515 1516 1518 1519 1521 1523 1524 1525 1527 1528 1529 1531 1532 1534 1535 1537 1538 1539 1540
1497 1496 1494 1493 1494 1494 1496 1491 1488 1487 1489 1490 1490 1490 1491 1492 1493 1493 1494 1496 1497 1498 1500 1501 1503 1505 1506 1508 1509 1511 1512 1514 1515 1516 1518 1520 1521 1523 1524 1525 1527 1528 1530 1532 1533 1535 1536 1537 1539
1495 1492 1488 1486 1490 1491 1494 1482 1480 1484 1485 1486 1486 1487 1487 1488 1488 1489 1490 1492 1493 1495 1496 1498 1499 1501 1503 1504 1506 1508 1509 1511 1512 1514 1516 1517 1519 1520 1522 1523 1524 1526 1528 1529 1531 1532 1534 1535 1536
1489 1485 1481 1482 1486 1487 1487 1479 1478 1481 1482 1482 1482 1483 1483 1483 1484 1485 1486 1487 1489 1490 1492 1494 1496 1498 1500 1501 1503 1505 1506 1507 1509 1511 1513 1515 1516 1518 1519 1520 1522 1523 1525 1527 1529 1530 1531 1533 1534
1481 1480 1479 1479 1482 1485 1482 1477 1476 1478 1479 1478 1478 1478 1479 1479 1479 1480 1481 1483 1484 1486 1488 1490 1492 1494 1496 1498 1500 1501 1503 1504 1506 1508 1510 1512 1513 1515 1516 1517 1519 1521 1522 1524 1526 1528 1529 1530 1532
1480 1479 1477 1476 1481 1482 1477 1473 1472 1473 1474 1474 1473 1474 1474 1475 1475 1476 1477 1478 1480 1482 1484 1486 1488 1490 1492 1494 1495 1497 1499 1501 1503 1505 1507 1509 1510 1512 1513 1515 1516 1518 1520 1521 1523 1525 1527 1528 1529
1482 1480 1476 1477 1481 1480 1474 1470 1467 1467 1468 1468 1469 1469 1469 1470 1471 1471 1472 1473 1475 1477 1479 1481 1483 1486 1488 1490 1492 1494 1496 1498 1499 1502 1504 1506 1508 1509 1510 1512 1513 1515 1517 1519 1521 1522 1524 1525 1527
1479 1478 1475 1477 1478 1478 1475 1464 1459 1460 1462 1463 1464 1464 1465 1465 1466 1467 1468 1469 1470 1472 1474 1477 1479 1481 1484 1486 1488 1490 1492 1494 1496 1498 1501 1503 1504 1506 1507 1509 1511 1512 1514 1516 1517 1519 1521 1522 1524
1474 1475 1477 1477 1477 1471 1473 1462 1451 1453 1455 1457 1458 1459 1460 1461 1462 1463 1463 1464 1466 1468 1470 1473 1475 1477 1480 1482 1483 1485 1487 1489 1491 1494 1497 1499 1501 1502 1504 1506 1507 1509 1511 1512 1514 1516 1518 1520 1521
1473 1475 1476 1475 1474 1473 1469 1469 1448 1451 1451 1451 1454 1455 1456 1457 1458 1458 1459 1461 1463 1465 1467 1469 1471 1474 1476 1478 1480 1482 1484 1486 1489 1491 1493 1495 1497 1499 1501 1503 1504 1506 1507 1509 1511 1513 1515 1516 1518
1475 1476 1474 1474 1474 1471 1459 1461 1445 1446 1447 1448 1451 1453 1453 1453 1454 1455 1456 1458 1460 1462 1463 1465 1467 1469 1471 1473 1476 1478 1480 1483 1485 1487 1490 1492 1494 1496 1497 1499 1501 1502 1504 1506 1507 1509 1511 1513 1514
1473 1472 1471 1469 1466 1454 1453 1455 1445 1445 1448 1449 1450 1451 1451 1451 1451 1452 1453 1455 1456 1458 1460 1462 1464 1465 1468 1470 1472 1475 1477 1479 1482 1484 1486 1488 1490 1492 1493 1495 1497 1499 1501 1502 1504 1505 1507 1509 1511
1469 1467 1464 1460 1452 1446 1453 1448 1443 1447 1449 1449 1450 1450 1449 1449 1449 1450 1451 1452 1453 1455 1457 1458 1460 1462 1464 1466 1469 1471 1474 1476 1478 1481 1483 1485 1486 1488 1490 1492 1493 1495 1497 1499 1500 1502 1503 1505 1507
1467 1465 1463 1463 1460 1455 1444 1445 1445 1447 1448 1448 1449 1448 1448 1448 1448 1448 1449 1450 1451 1452 1454 1455 1457 1459 1461 1463 1466 1468 1471 1473 1475 1477 1479 1481 1483 1485 1487 1488 1490 1492 1493 1495 1496 1498 1499 1501 1503
1467 1465 1467 1462 1456 1447 1441 1441 1441 1444 1447 1448 1448 1448 1448 1447 1447 1447 1448 1449 1449 1450 1451 1453 1455 1456 1458 1460 1462 1465 1467 1469 1472 1474 1476 1478 1480 1481 1483 1485 1486 1488 1490 1491 1493 1494 1496 1498 1499
1469 1469 1465 1460 1454 1447 1442 1441 1443 1445 1447 1448 1449 1449 1448 1447 1447 1447 1447 1447 1448 1448 1449 1450 1452 1454 1455 1457 1459 1462 1464 1466 1469 1471 1473 1475 1476 1478 1479 1481 1483 1484 1486 1488 1489 1491 1492 1494 1496
1468 1467 1466 1463 1458 1453 1447 1448 1448 1448 1449 1449 1449 1449 1449 1448 1447 1447 1446 1446 1446 1447 1447 1448 1449 1451 1453 1455 1457 1459 1461 1463 1465 1467 1469 1471 1473 1475 1476 1478 1479 1481 1482 1484 1486 1487 1489 1491 1492